Volver al catálogo

STARLINK-2483

ActivoComunicacionesVLEO
NORAD 48140·PAYLOAD·🇺🇸 United States

Lanzado Apr 7, 2021 desde Cape Canaveral Space Force Station

Loading…

Próximos Pases (próximas 24 horas)

TLE

ActualizadoSource: CelesTrak SupGP

Época: Sep 15, 2026, 01:11 UTC

1 48140C 21027BA  26258.04979167  .00000403  00000+0  12955-4 0  2585
2 48140  53.1594   4.4372 0001005  97.3141 241.0439 15.31705157    16

Sigue STARLINK-2483 en tiempo real con AllMySat

Download on the App Store